�������l�o���
Date,Time,MP-1(��Sv/h),MP-2(��Sv/h),MP-3(��Sv/h),MP-4(��Sv/h),MP-5(��Sv/h),MP-6(��Sv/h),MP-7(��Sv/h),MP-8(��Sv/h),����,����(m/s),���J
2016/10/28,00:00,1.146,1.990,1.351,2.220,1.558,0.610,1.085,0.998,���k��,2.3,��
2016/10/28,00:10,1.146,1.991,1.350,2.223,1.558,0.609,1.083,0.996,�k��,3.8,��
2016/10/28,00:20,1.145,1.991,1.351,2.218,1.559,0.609,1.082,0.998,���k��,6.3,��
2016/10/28,00:30,1.146,1.987,1.354,2.218,1.558,0.610,1.085,0.996,���k��,7.5,��
2016/10/28,00:40,1.147,1.992,1.352,2.222,1.556,0.610,1.083,0.995,���k��,6.4,��
2016/10/28,00:50,1.147,1.991,1.354,2.222,1.558,0.610,1.083,0.995,���k��,7.4,��
2016/10/28,01:00,1.150,1.990,1.352,2.223,1.557,0.611,1.084,0.994,���k��,6.9,��
2016/10/28,01:10,1.146,1.989,1.352,2.221,1.559,0.610,1.084,0.998,���k��,6.7,��
2016/10/28,01:20,1.148,1.990,1.355,2.221,1.558,0.611,1.083,0.997,�k��,6.9,��
2016/10/28,01:30,1.147,1.991,1.352,2.224,1.556,0.612,1.084,0.997,���k��,5.8,��
2016/10/28,01:40,1.148,1.993,1.351,2.222,1.557,0.611,1.083,0.998,���k��,5.8,��
2016/10/28,01:50,1.149,1.990,1.354,2.222,1.558,0.609,1.086,0.997,���k��,5.5,��
2016/10/28,02:00,1.149,1.989,1.353,2.218,1.560,0.610,1.086,0.997,���k��,5.5,��
2016/10/28,02:10,1.147,1.990,1.353,2.221,1.561,0.610,1.085,0.995,���k��,7.7,��
2016/10/28,02:20,1.148,1.994,1.350,2.223,1.559,0.613,1.084,0.996,���k��,8.0,��
2016/10/28,02:30,1.146,1.991,1.356,2.220,1.559,0.609,1.084,0.996,�k��,8.5,��
2016/10/28,02:40,1.146,1.993,1.354,2.221,1.560,0.610,1.085,0.996,�k��,8.8,��
2016/10/28,02:50,1.147,1.994,1.353,2.223,1.558,0.610,1.085,0.996,�k��,7.7,��
2016/10/28,03:00,1.146,1.991,1.353,2.220,1.558,0.610,1.085,0.997,�k��,7.5,��
2016/10/28,03:10,1.146,1.993,1.353,2.222,1.556,0.612,1.084,0.996,�k��,6.6,��
2016/10/28,03:20,1.148,1.990,1.352,2.223,1.557,0.608,1.083,0.997,�k��,4.1,��
2016/10/28,03:30,1.148,1.990,1.354,2.222,1.557,0.610,1.085,0.997,���k��,3.9,��
2016/10/28,03:40,1.146,1.994,1.353,2.221,1.556,0.610,1.086,0.996,���k��,3.0,��
2016/10/28,03:50,1.147,1.993,1.351,2.222,1.558,0.611,1.083,0.996,�k��,3.0,��
2016/10/28,04:00,1.145,1.987,1.353,2.220,1.559,0.610,1.085,0.997,�k��,3.8,��
2016/10/28,04:10,1.148,1.989,1.350,2.220,1.555,0.610,1.084,0.995,�k��,4.1,��
2016/10/28,04:20,1.147,1.989,1.351,2.218,1.555,0.611,1.083,0.997,�k��,4.9,��
2016/10/28,04:30,1.147,1.990,1.353,2.222,1.558,0.609,1.083,0.996,�k��,6.0,��
2016/10/28,04:40,1.145,1.989,1.352,2.221,1.554,0.610,1.084,0.995,�k��,4.9,��
2016/10/28,04:50,1.147,1.989,1.352,2.220,1.556,0.610,1.084,0.997,�k�k��,3.2,��
2016/10/28,05:00,1.146,1.989,1.352,2.221,1.557,0.610,1.085,0.998,�k�k��,3.2,��
2016/10/28,05:10,1.147,1.990,1.351,2.217,1.556,0.609,1.084,0.996,�k,3.0,��
2016/10/28,05:20,1.149,1.989,1.351,2.220,1.557,0.610,1.084,0.998,�k�k��,2.8,��
2016/10/28,05:30,1.147,1.988,1.351,2.220,1.553,0.609,1.082,0.997,�k��,3.5,��
2016/10/28,05:40,1.145,1.988,1.351,2.222,1.558,0.609,1.085,0.997,�k�k��,3.8,��
2016/10/28,05:50,1.145,1.991,1.352,2.222,1.555,0.608,1.081,0.997,�k��,3.8,��
2016/10/28,06:00,1.146,1.992,1.351,2.222,1.555,0.607,1.081,0.996,�k��,3.4,��
2016/10/28,06:10,1.146,1.989,1.349,2.222,1.557,0.609,1.083,0.996,�k�k��,3.4,��
2016/10/28,06:20,1.144,1.991,1.351,2.222,1.555,0.610,1.084,0.998,�k��,2.6,��
2016/10/28,06:30,1.146,1.990,1.351,2.220,1.557,0.610,1.084,0.996,�k��,3.3,��
2016/10/28,06:40,1.147,1.988,1.353,2.218,1.555,0.610,1.084,0.996,�k��,6.1,��
2016/10/28,06:50,1.144,1.989,1.352,2.224,1.557,0.609,1.084,0.997,�k��,5.2,��
2016/10/28,07:00,1.147,1.991,1.351,2.220,1.559,0.610,1.084,0.997,�k��,5.8,��
2016/10/28,07:10,1.147,1.990,1.353,2.222,1.556,0.609,1.085,0.998,�k��,5.8,��
2016/10/28,07:20,1.147,1.989,1.351,2.222,1.556,0.610,1.085,0.996,�k��,6.1,��
2016/10/28,07:30,1.146,1.985,1.353,2.222,1.560,0.609,1.084,0.995,���k��,6.7,��
2016/10/28,07:40,1.146,1.989,1.345,2.224,1.557,0.609,1.083,0.998,���k��,6.6,��
2016/10/28,07:50,1.148,1.989,1.353,2.224,1.556,0.609,1.082,0.996,�k��,6.9,��
2016/10/28,08:00,1.147,1.990,1.350,2.221,1.559,0.610,1.084,0.997,�k��,5.2,��
2016/10/28,08:10,1.149,1.985,1.350,2.221,1.556,0.610,1.083,0.997,�k��,5.2,��
2016/10/28,08:20,1.147,1.986,1.348,2.225,1.556,0.610,1.083,0.995,�k��,4.4,��
2016/10/28,08:30,1.148,1.990,1.354,2.223,1.556,0.611,1.083,0.999,�k��,4.9,��
2016/10/28,08:40,1.146,1.989,1.352,2.224,1.559,0.611,1.083,0.997,�k��,5.8,��
2016/10/28,08:50,1.151,1.987,1.353,2.225,1.558,0.611,1.081,1.000,�k�k��,3.8,��
2016/10/28,09:00,1.146,1.992,1.352,2.224,1.558,0.612,1.083,0.997,�k�k��,4.4,��
2016/10/28,09:10,1.148,1.991,1.353,2.225,1.559,0.611,1.082,1.000,�k�k��,4.2,��
2016/10/28,09:20,1.147,1.991,1.351,2.222,1.560,0.612,1.083,0.999,�k�k��,3.9,��
2016/10/28,09:30,1.146,1.991,1.352,2.224,1.558,0.612,1.083,0.998,�k�k��,2.7,��
2016/10/28,09:40,1.144,1.990,1.349,2.223,1.561,0.610,1.082,1.000,�k,1.8,��
2016/10/28,09:50,1.126,1.990,1.350,2.226,1.556,0.613,1.084,0.998,�k,1.7,��
2016/10/28,10:00,1.112,1.983,1.349,2.225,1.561,0.611,1.082,0.998,�k,2.0,��
2016/10/28,10:10,1.116,1.986,1.354,2.227,1.560,0.613,1.083,0.998,�k,3.4,��
2016/10/28,10:20,1.140,1.988,1.351,2.229,1.560,0.612,1.083,0.999,�k,3.0,��
2016/10/28,10:30,1.146,1.991,1.351,2.226,1.563,0.612,1.084,1.001,�k�k��,2.4,��
2016/10/28,10:40,1.146,1.991,1.353,2.224,1.559,0.611,1.084,1.000,�k,2.1,��
2016/10/28,10:50,1.145,1.989,1.354,2.227,1.560,0.612,1.083,0.998,�k�k��,2.6,��
2016/10/28,11:00,1.147,1.989,1.352,2.228,1.560,0.611,1.080,0.996,�k�k��,2.1,��
2016/10/28,11:10,1.145,1.992,1.353,2.226,1.557,0.612,1.082,0.998,�k�k��,2.4,��
2016/10/28,11:20,1.145,1.993,1.352,2.226,1.555,0.611,1.084,1.000,�k��,2.8,��
2016/10/28,11:30,1.146,1.992,1.353,2.224,1.560,0.611,1.083,1.001,�k��,3.0,��
2016/10/28,11:40,1.146,1.990,1.352,2.227,1.560,0.613,1.083,0.998,�k��,3.2,��
2016/10/28,11:50,1.144,1.994,1.353,2.224,1.560,0.609,1.082,1.000,�k�k��,2.1,��
2016/10/28,12:00,1.144,1.993,1.354,2.229,1.559,0.609,1.084,0.998,�k��,1.8,��
2016/10/28,12:10,1.131,1.995,1.354,2.227,1.560,0.609,1.081,0.999,�k��,2.4,��
2016/10/28,12:20,1.126,1.995,1.346,2.228,1.558,0.608,1.081,0.998,���k��,2.1,��
2016/10/28,12:30,1.134,1.992,1.351,2.228,1.560,0.608,1.082,0.999,��,1.8,��
2016/10/28,12:40,1.129,1.992,1.352,2.225,1.562,0.607,1.083,0.998,���k��,2.4,��
2016/10/28,12:50,1.136,1.991,1.351,2.223,1.561,0.609,1.083,0.998,���k��,3.2,��
2016/10/28,13:00,1.139,1.992,1.349,2.224,1.562,0.608,1.083,1.000,���k��,3.5,��
2016/10/28,13:10,1.142,1.994,1.352,2.224,1.561,0.607,1.084,0.998,���k��,3.9,��
2016/10/28,13:20,1.140,1.997,1.348,2.227,1.562,0.607,1.085,1.000,���k��,3.8,�L
2016/10/28,13:30,1.140,1.993,1.344,2.226,1.560,0.607,1.083,0.998,���k��,2.8,�L
2016/10/28,13:40,1.143,1.991,1.351,2.226,1.561,0.608,1.086,1.001,�k��,2.7,��
2016/10/28,13:50,1.142,1.992,1.350,2.229,1.560,0.607,1.086,0.999,���k��,2.7,��
2016/10/28,14:00,1.143,1.995,1.351,2.225,1.560,0.611,1.085,1.000,���k��,2.8,��
2016/10/28,14:10,1.143,1.996,1.352,2.228,1.555,0.610,1.085,0.999,���k��,2.7,�L
2016/10/28,14:20,1.142,1.994,1.349,2.224,1.559,0.615,1.086,0.999,���k��,2.5,�L
2016/10/28,14:30,1.141,1.994,1.351,2.222,1.565,0.616,1.082,0.999,���k��,3.3,��
2016/10/28,14:40,1.141,1.987,1.348,2.228,1.563,0.614,1.083,0.999,���k��,2.8,�L
2016/10/28,14:50,1.141,1.987,1.344,2.224,1.552,0.614,1.082,0.998,��,2.3,�L
2016/10/28,15:00,1.141,1.980,1.334,2.218,1.551,0.614,1.081,0.996,��,2.4,�L
2016/10/28,15:10,1.138,1.973,1.330,2.219,1.544,0.613,1.078,0.998,��,2.3,�L
2016/10/28,15:20,1.135,1.970,1.329,2.214,1.542,0.612,1.078,0.995,���쐼,2.4,�L
2016/10/28,15:30,1.133,1.967,1.328,2.214,1.538,0.612,1.075,0.996,�쐼,2.6,�L
2016/10/28,15:40,1.131,1.957,1.326,2.210,1.530,0.612,1.075,0.995,���쐼,2.5,�L
2016/10/28,15:50,1.129,1.952,1.317,2.200,1.525,0.612,1.074,0.991,���쐼,2.3,�L
2016/10/28,16:00,1.129,1.949,1.317,2.197,1.523,0.609,1.071,0.991,��,2.3,�L
2016/10/28,16:10,1.123,1.941,1.317,2.186,1.516,0.610,1.069,0.992,���쐼,2.5,�L
2016/10/28,16:20,1.123,1.937,1.312,2.184,1.513,0.610,1.069,0.990,-,CALM,�L
2016/10/28,16:30,1.123,1.930,1.311,2.176,1.508,0.609,1.067,0.989,�쐼,1.6,�L
2016/10/28,16:40,1.119,1.925,1.308,2.170,1.504,0.608,1.067,0.987,���쐼,1.8,�L
2016/10/28,16:50,1.117,1.923,1.304,2.168,1.498,0.608,1.065,0.987,��,2.0,�L
2016/10/28,17:00,1.116,1.917,1.302,2.159,1.498,0.606,1.064,0.986,-,CALM,�L
2016/10/28,17:10,1.112,1.912,1.300,2.156,1.489,0.607,1.064,0.985,-,CALM,�L
2016/10/28,17:20,1.109,1.911,1.302,2.149,1.492,0.607,1.063,0.985,-,CALM,�L
2016/10/28,17:30,1.109,1.908,1.297,2.146,1.491,0.608,1.062,0.982,-,CALM,�L
2016/10/28,17:40,1.108,1.903,1.296,2.140,1.484,0.604,1.062,0.982,-,CALM,�L
2016/10/28,17:50,1.105,1.895,1.291,2.131,1.478,0.607,1.060,0.982,�k�k��,3.0,�L
2016/10/28,18:00,1.106,1.893,1.292,2.134,1.476,0.605,1.060,0.979,-,CALM,�L
2016/10/28,18:10,1.102,1.889,1.289,2.127,1.475,0.606,1.057,0.980,-,CALM,�L
2016/10/28,18:20,1.103,1.891,1.288,2.131,1.474,0.604,1.058,0.978,-,CALM,�L
2016/10/28,18:30,1.102,1.888,1.286,2.127,1.470,0.603,1.056,0.979,-,CALM,�L
2016/10/28,18:40,1.102,1.885,1.282,2.129,1.471,0.602,1.056,0.979,��,2.4,�L
2016/10/28,18:50,1.102,1.890,1.286,2.124,1.472,0.603,1.056,0.980,�k��,2.3,�L
2016/10/28,19:00,1.103,1.893,1.286,2.126,1.471,0.604,1.056,0.981,�k��,2.3,�L
2016/10/28,19:10,1.101,1.892,1.283,2.126,1.472,0.602,1.057,0.980,�k�k��,2.7,�L
2016/10/28,19:20,1.100,1.889,1.284,2.122,1.468,0.602,1.056,0.976,�k��,3.0,�L
2016/10/28,19:30,1.101,1.882,1.280,2.116,1.463,0.602,1.055,0.979,�k��,3.3,�L
2016/10/28,19:40,1.100,1.884,1.281,2.117,1.467,0.601,1.055,0.978,�k��,2.5,�L
2016/10/28,19:50,1.100,1.883,1.282,2.116,1.468,0.602,1.054,0.977,�k��,2.7,�L
2016/10/28,20:00,1.099,1.885,1.280,2.117,1.464,0.603,1.055,0.977,�k��,3.3,�L
2016/10/28,20:10,1.099,1.883,1.278,2.114,1.462,0.602,1.054,0.978,-,CALM,�L
2016/10/28,20:20,1.095,1.873,1.275,2.108,1.457,0.602,1.053,0.976,�k��,4.2,�L
2016/10/28,20:30,1.094,1.874,1.273,2.106,1.454,0.601,1.050,0.975,-,CALM,�L
2016/10/28,20:40,1.093,1.872,1.272,2.105,1.455,0.600,1.051,0.973,���k��,3.9,�L
2016/10/28,20:50,1.091,1.872,1.271,2.100,1.452,0.599,1.051,0.974,-,CALM,�L
2016/10/28,21:00,1.089,1.861,1.267,2.099,1.448,0.600,1.049,0.973,-,CALM,�L
2016/10/28,21:10,1.090,1.864,1.272,2.098,1.448,0.599,1.048,0.974,-,CALM,�L
2016/10/28,21:20,1.089,1.861,1.267,2.096,1.445,0.598,1.048,0.971,-,CALM,�L
2016/10/28,21:30,1.089,1.866,1.269,2.101,1.445,0.598,1.049,0.974,�k��,3.4,�L
2016/10/28,21:40,1.091,1.869,1.267,2.097,1.447,0.598,1.047,0.974,�k��,4.1,�L
2016/10/28,21:50,1.089,1.866,1.267,2.095,1.443,0.598,1.049,0.973,�k��,6.3,�L
2016/10/28,22:00,1.089,1.868,1.268,2.097,1.446,0.599,1.046,0.973,�k��,6.1,�L
2016/10/28,22:10,1.092,1.870,1.267,2.098,1.446,0.597,1.046,0.973,�k��,6.4,�L
2016/10/28,22:20,1.089,1.872,1.265,2.096,1.445,0.596,1.047,0.973,�k��,5.8,�L
2016/10/28,22:30,1.085,1.863,1.263,2.092,1.444,0.597,1.048,0.972,�k��,7.4,�L
2016/10/28,22:40,1.088,1.861,1.263,2.092,1.442,0.597,1.045,0.972,�k��,7.5,�L
2016/10/28,22:50,1.086,1.861,1.261,2.088,1.438,0.597,1.046,0.969,�k��,7.7,�L
2016/10/28,23:00,1.086,1.857,1.259,2.084,1.436,0.597,1.045,0.971,�k��,7.4,�L
2016/10/28,23:10,1.086,1.857,1.260,2.085,1.435,0.595,1.045,0.968,�k��,8.0,�L
2016/10/28,23:20,1.083,1.855,1.260,2.084,1.436,0.596,1.044,0.971,�k��,6.7,�L
2016/10/28,23:30,1.082,1.857,1.260,2.082,1.434,0.598,1.046,0.971,�k��,8.6,�L
2016/10/28,23:40,1.086,1.858,1.260,2.084,1.435,0.598,1.047,0.972,�k��,8.2,�L
2016/10/28,23:50,1.083,1.852,1.259,2.080,1.431,0.598,1.043,0.971,�k��,7.7,�L
